Weather History for Durango, CO

Change the Weather History Date:

Sunday, September 16, 2012

  Actual Average Record
Temperature  
Mean Temperature 62 °F 59 °F  
Max Temperature 83 °F 75 °F 89 °F (2000)
Min Temperature 40 °F 42 °F 31 °F (1970)
Degree Days  
Heating Degree Days 3 6  
Month to date heating degree days 30 65  
Since 1 July heating degree days 35 94  
Cooling Degree Days 0 0  
Month to date cooling degree days 35 3  
Year to date cooling degree days 477 240  
Growing Degree Days 12 (Base 50)    
Moisture  
Dew Point 24 °F    
Average Humidity 34    
Maximum Humidity 58    
Minimum Humidity 9    
Precipitation  
Precipitation 0.00 in 0.07 in 0.18 in (1984)
Month to date precipitation 0.36 1.04  
Year to date precipitation 5.62 11.01  
Sea Level Pressure  
Sea Level Pressure 30.03 in    
Wind  
Wind Speed 7 mph (WNW)    
Max Wind Speed 24 mph    
Max Gust Speed 32 mph    
Visibility 10 miles    
Events      
T = Trace of Precipitation, MM = Missing Value Source: NWS Daily Summary

Daily Weather History Graph

Daily Weather History Graph

Search for Another Location

Airport:

Trip Planner

Search our weather history database for the weather conditions in past years. The results will help you decide how hot, cold, wet, or windy it might be!

Date:

Astronomy

Sep. 16, 2012 Rise Set
Actual Time 6:54 AM MDT 7:16 PM MDT
Civil Twilight 6:28 AM MDT 7:42 PM MDT
Nautical Twilight 5:57 AM MDT 8:12 PM MDT
Astronomical Twilight 5:26 AM MDT 8:43 PM MDT
Moon 7:34 AM MDT 7:26 PM MDT
Length of Visible Light 13h 13m
Length of Day
12h 21m
New Moon, 1% of the Moon is Illuminated
Sep 16
New Moon
Sep 22
First Quarter
Sep 29
Full
Oct 8
Last Quarter
Oct 15
New

Hourly Weather History & Observations

Time (MDT) Temp. Windchill Dew Point Humidity Pressure Visibility Wind Dir Wind Speed Gust Speed Precip Events Conditions
12:53 AM 55.0 °F - 34.0 °F 45% 30.06 in 10.0 mi North 5.8 mph - N/A   Clear
1:53 AM 52.0 °F - 32.0 °F 47% 30.06 in 10.0 mi North 4.6 mph - N/A   Clear
2:53 AM 48.9 °F - 30.0 °F 48% 30.06 in 10.0 mi NE 3.5 mph - N/A   Clear
3:53 AM 46.0 °F - 32.0 °F 58% 30.08 in 10.0 mi Calm Calm - N/A   Clear
4:53 AM 45.0 °F 41.2 °F 28.0 °F 52% 30.08 in 10.0 mi North 6.9 mph - N/A   Clear
5:53 AM 43.0 °F 40.3 °F 27.0 °F 53% 30.09 in 10.0 mi NNE 4.6 mph - N/A   Clear
6:53 AM 42.1 °F 40.2 °F 28.9 °F 60% 30.12 in 10.0 mi North 3.5 mph - N/A   Clear
7:53 AM 45.0 °F - 30.9 °F 58% 30.14 in 10.0 mi Calm Calm - N/A   Clear
8:53 AM 55.0 °F - 32.0 °F 42% 30.12 in 10.0 mi Calm Calm - N/A   Clear
9:53 AM 63.0 °F - 27.0 °F 26% 30.10 in 10.0 mi Calm Calm - N/A   Clear
10:53 AM 69.1 °F - 30.9 °F 24% 30.07 in 10.0 mi Calm Calm - N/A   Clear
11:53 AM 73.9 °F - 24.1 °F 16% 30.04 in 10.0 mi WSW 6.9 mph - N/A   Clear
12:53 PM 78.1 °F - 15.1 °F 9% 30.01 in 10.0 mi Variable 3.5 mph - N/A   Clear
1:53 PM 79.0 °F - 16.0 °F 9% 29.99 in 10.0 mi WSW 10.4 mph 17.3 mph N/A   Clear
2:53 PM 80.1 °F - 23.0 °F 12% 29.97 in 10.0 mi South 13.8 mph 32.2 mph N/A   Clear
3:53 PM 81.0 °F - 18.0 °F 10% 29.94 in 10.0 mi South 13.8 mph 25.3 mph N/A   Clear
4:16 PM 80.6 °F - 17.6 °F 10% 30.16 in 10.0 mi WSW 11.5 mph 19.6 mph N/A   Clear
4:53 PM 82.0 °F - 17.1 °F 9% 29.92 in 10.0 mi WNW 18.4 mph - N/A   Clear
5:53 PM 79.0 °F - 17.1 °F 10% 29.94 in 10.0 mi West 18.4 mph 27.6 mph N/A   Clear
6:53 PM 75.0 °F - 19.0 °F 12% 29.96 in 10.0 mi West 16.1 mph 23.0 mph N/A   Clear
7:53 PM 70.0 °F - 21.0 °F 16% 29.99 in 10.0 mi WSW 12.7 mph - N/A   Clear
8:53 PM 64.9 °F - 23.0 °F 20% 29.99 in 10.0 mi West 8.1 mph - N/A   Clear
9:53 PM 66.9 °F - 23.0 °F 19% 29.97 in 10.0 mi WNW 12.7 mph - N/A   Clear
10:53 PM 64.9 °F - 21.9 °F 19% 29.95 in 10.0 mi WNW 10.4 mph - N/A   Clear
11:53 PM 55.0 °F - 23.0 °F 29% 29.96 in 10.0 mi East 3.5 mph - N/A   Clear